Weather in Velké Hamry

Czech Republic     50°42′59″N   15°18′50″E
temp.,
°C
wind,
m/s
gust,
m/s
humid.,
%
clouds,
%
prec.,
mm/h
press.,
hPa
HPBL,
m
19 january, wed
wed1901:00−4nnw019833 0.0 103619
04:00−5ese019892 0.0 103428
07:00−4sse1299100 0.0 103280
10:00−2sse349490 0.0 1029175
13:000sse358768 0.0 1026263
16:00−2sse259481 0.0 1022148
19:00−4se269358 0.0 1020134
22:00−3ssw259899 0.0 1018204
20 january, thu
thu2001:00−2wsw31398100 1.0 1016884
04:00−1wnw71497100 2.9 10151360
07:00−4w5139070 3.3 1015948
10:00−5nw61593100 4.2 10151262
13:00−5wnw7158393 4.9 10161637
16:00−5wnw61286100 0.7 10171307
19:00−6nw51191100 1.5 10181236
22:00−6nw5128997 1.4 10201407
21 january, fri
fri2101:00−7nw61390100 1.9 10221288
04:00−7nw41287100 0.6 10231058
07:00−10nw269565 0.6 1025249
10:00−7wnw398638 0.0 1025650
13:00−5wnw5985100 0.2 10241134
16:00−5nw6118698 0.6 10231190
19:00−5nw61292100 1.4 10241265
22:00−6nw51394100 0.4 10251036
22 january, sat
sat2201:00−6nnw51192100 1.8 10251002
04:00−7nnw3109591 0.4 1026577
07:00−5nw31089100 1.3 1026641
10:00−5nw3118762 0.0 1026542
13:00−3nnw4109292 0.1 1025879
16:00−4n488663 0.2 1027673
19:00−8nne239658 0.3 103142
22:00−11nne119750 0.0 103313
23 january, sun
sun2301:00−10nne119697 0.0 103316
04:00−9n229983 0.0 103230
07:00−6n379982 0.0 1031323
10:00−4n268944 0.0 1031349
13:00−3n387336 0.0 1031684
16:00−5n22935 0.0 103339
19:00−10ne229373 0.0 103516
22:00−11ene21875 0.0 103711